Home > Weather > Bayreuth > Past weeks

Flag for Germany Past Weather in Bayreuth, Bavaria, Germany — Yesterday and Last 2 Weeks

Now
54 °F

Cool.


Feels Like: N/A
Forecast: 56 / 67 °F
Wind: N/A

Location: Grafenwoehr

Current Time: May 31, 2016 at 8:03:58 AM

Latest Report: May 31, 2016 at 7:02 AM


Visibility: N/A

Pressure: 29.84 "Hg

Humidity: 100%

Dew Point: 54 °F

Location of BayreuthLocation

Past Weather in Bayreuth — Graph

°F

Bayreuth Temperature Yesterday

Maximum temperature yesterday: 65 °F (at 4:58 PM)
Minimum temperature yesterday: 57 °F (at 2:58 AM)
Average temperature yesterday: 60 °F

High & Low Weather Summary for the Past Weeks

 TemperatureHumidityPressure
High84 °F (May 22, 2:58 PM)100% (May 20, 3:58 AM)30.13 "Hg (May 20, 3:58 AM)
Low39 °F (May 16, 6:58 AM)22% (May 22, 3:58 PM)29.56 "Hg (May 29, 8:58 PM)
Average56 °F78%29.91 "Hg
* Reported May 16 6:58 AM — May 31 6:03 AM, Bayreuth, Weather by CustomWeather, © 2016

Note: Actual official high and low records may vary slightly from our data, if they occured in-between our weather recording intervals... More about our weather records

Advertising

Bayreuth Weather History for the Previous 24 Hours

Scroll right to see more
 ConditionsComfort  
Time TempWeatherWind HumidityBarometerVisibility
6:03 AM
Tue, May 31
52 °FFog.No wind100%29.83 "Hg1 mi
5:58 AM52 °FFog.No wind100%29.83 "Hg1 mi
4:58 AM52 °FFog.No wind100%29.82 "Hg1 mi
3:58 AM52 °FCool.No wind100%29.79 "HgN/A
3:04 AM52 °FFog.No wind100%29.81 "Hg1 mi
2:58 AM52 °FFog.1 mph100%29.80 "Hg1 mi
1:58 AM54 °FClear.No wind100%29.80 "HgN/A
12:59 AM55 °FFog.No wind100%29.80 "Hg1 mi
12:00 AM57 °FPartly cloudy.No wind100%29.80 "HgN/A
10:58 PM
Mon, May 30
57 °FPartly cloudy.1 mph100%29.78 "HgN/A
9:58 PM58 °FScattered clouds.No wind96%29.77 "HgN/A
8:58 PM59 °FScattered clouds.2 mph93%29.74 "HgN/A
7:58 PM61 °FPartly sunny.2 mph86%29.73 "HgN/A
6:58 PM62 °FPartly sunny.3 mph90%29.72 "HgN/A
5:58 PM63 °FBroken clouds.6 mph88%29.72 "HgN/A
4:58 PM65 °FMostly cloudy.2 mph85%29.70 "HgN/A
4:04 PM63 °FHeavy rain. Cloudy.7 mph83%29.73 "Hg1 mi
2:58 PM63 °FOvercast.5 mph83%29.70 "HgN/A
1:58 PM64 °FMostly cloudy.8 mph73%29.70 "HgN/A
1:03 PM63 °FMostly cloudy.6 mph77%29.71 "HgN/A
11:58 AM59 °FMostly cloudy.5 mph88%29.70 "HgN/A
11:03 AM59 °FCloudy.6 mph94%29.70 "HgN/A
10:04 AM61 °FMostly cloudy.8 mph88%29.69 "HgN/A
9:04 AM59 °FLight rain. Mostly cloudy.8 mph88%29.68 "Hg6 mi
8:58 AM60 °FMore clouds than sun.5 mph86%29.65 "HgN/A
8:04 AM59 °FMostly cloudy.5 mph94%29.66 "HgN/A
Weather by CustomWeather, © 2016

See weather overviewHow to use our weather pages